Total_Precipitation_Accumulation
1.77 2.25 2.76 3.24 3.95 4.91 5.93 6.39 6.26 5.68 5.15 4.73 4.39 4.19 3.85 3.55 3.42 3.10 2.75 2.72 2.71 2.75 3.05 2.77 3.12 3.13 3.21 3.20 3.11 3.25 3.23 2.99 3.12 3.62 3.59 3.17 2.91 2.91 2.77 2.62 2.71 2.53 2.52
1.82 2.34 2.93 3.31 3.67 4.24 5.07 5.47 5.19 4.61 3.95 3.69 3.64 3.65 3.59 3.18 2.94 2.85 2.84 2.54 2.55 2.64 2.72 2.89 2.75 2.81 3.03 2.93 2.87 3.20 3.20 2.86 2.93 3.46 3.73 3.58 3.60 3.32 2.57 2.51 2.63 2.61 2.66
1.62 2.35 2.91 3.18 3.45 3.73 3.81 3.95 3.88 3.45 3.14 3.07 3.08 3.13 3.31 3.08 2.78 2.69 2.64 2.40 2.30 2.29 2.45 2.54 2.67 2.79 2.70 2.82 2.90 2.99 3.13 3.07 2.90 2.96 3.54 3.57 3.44 3.31 2.96 2.54 2.42 2.61 2.87
1.47 2.21 2.52 2.65 2.70 2.81 2.69 2.78 2.88 2.80 2.77 2.68 2.68 2.57 2.46 2.47 2.38 2.39 2.36 2.34 2.21 2.14 2.09 2.22 2.48 2.63 2.58 2.84 2.57 2.73 3.01 3.14 2.89 2.89 2.97 2.98 3.09 3.29 3.13 2.72 2.37 2.36 2.50
1.18 1.51 1.63 1.78 1.85 1.91 1.95 2.20 2.57 2.72 2.62 2.51 2.61 2.61 2.30 2.19 2.15 2.21 2.35 2.33 2.22 2.11 2.00 2.08 2.30 2.45 2.51 2.61 2.64 2.95 2.89 2.81 2.80 2.81 2.92 3.02 2.99 2.84 2.89 2.91 2.62 2.42 2.23
0.88 1.06 1.16 1.26 1.33 1.38 1.50 1.75 2.19 2.43 2.36 2.32 2.34 2.30 2.25 2.24 2.18 2.13 2.19 2.16 2.13 2.20 2.28 2.24 2.30 2.28 2.31 2.39 2.52 2.76 2.75 2.70 2.78 2.68 2.60 2.85 3.00 2.97 3.02 2.87 2.60 2.42 2.16
0.78 0.92 1.12 1.19 1.14 1.11 1.23 1.40 1.71 1.86 1.85 1.95 2.10 2.17 2.23 2.22 2.08 2.02 1.99 1.96 1.80 1.90 2.17 2.33 2.40 2.41 2.40 2.32 2.44 2.53 2.53 2.59 2.74 2.66 2.53 2.53 2.55 2.76 2.98 2.99 2.59 2.38 2.14
0.67 0.75 0.90 0.91 0.92 0.99 1.06 1.20 1.36 1.44 1.52 1.63 1.85 2.03 2.06 2.03 1.99 2.13 2.01 1.85 1.65 1.59 1.81 2.08 2.20 2.20 2.16 2.15 2.59 2.39 2.34 2.51 2.60 2.52 2.84 2.68 2.44 2.64 2.83 2.95 2.98 2.78 2.63
0.52 0.57 0.69 0.74 0.78 0.95 1.05 1.09 1.20 1.30 1.39 1.48 1.75 1.91 1.92 1.87 1.91 2.01 1.93 1.74 1.75 1.64 1.71 1.76 2.04 2.15 2.10 2.14 2.38 2.33 2.29 2.45 2.45 2.59 2.85 2.80 2.64 2.64 2.66 2.87 3.16 3.36 3.20
0.48 0.56 0.61 0.69 0.69 0.72 0.88 0.99 1.07 1.24 1.41 1.49 1.55 1.58 1.74 1.71 1.69 1.65 1.62 1.70 1.74 1.70 1.75 1.83 1.83 1.93 2.07 2.17 2.32 2.19 2.15 2.29 2.38 2.54 2.70 2.69 2.60 2.65 2.57 2.70 2.97 3.24 3.31
0.58 0.58 0.65 0.66 0.63 0.63 0.78 0.91 1.00 1.13 1.25 1.29 1.33 1.43 1.52 1.51 1.47 1.47 1.45 1.56 1.60 1.64 1.65 1.69 1.76 1.77 1.87 2.14 2.43 2.34 2.34 2.39 2.41 2.42 2.59 2.67 2.84 2.89 2.77 2.75 2.76 2.93 3.13
0.75 0.72 0.75 0.72 0.72 0.73 0.78 0.87 0.88 0.94 1.02 1.10 1.19 1.24 1.37 1.39 1.38 1.42 1.55 1.63 1.61 1.56 1.47 1.52 1.59 1.54 1.66 1.92 2.23 2.39 2.53 2.67 2.63 2.65 2.82 2.85 2.87 2.84 2.74 2.76 2.74 2.76 3.02
0.75 0.89 0.90 0.76 0.74 0.76 0.80 0.82 0.80 0.85 0.92 0.99 1.04 1.11 1.25 1.42 1.50 1.54 1.58 1.67 1.69 1.64 1.64 1.66 1.63 1.74 1.83 1.85 2.02 2.23 2.34 2.46 2.54 2.68 2.73 2.69 2.82 2.73 2.71 2.59 2.57 2.60 2.76
0.72 0.90 0.99 0.78 0.69 0.70 0.73 0.76 0.76 0.75 0.78 0.94 1.08 1.15 1.34 1.54 1.62 1.64 1.67 1.68 1.71 1.70 1.74 1.74 1.77 1.87 1.89 1.84 1.95 2.12 2.25 2.32 2.39 2.52 2.63 2.69 2.70 2.73 2.87 2.72 2.70 2.85 2.96
0.76 0.81 0.86 0.75 0.70 0.72 0.73 0.75 0.79 0.82 0.84 1.03 1.20 1.38 1.54 1.60 1.66 1.72 1.75 1.81 1.85 1.76 1.85 1.91 1.88 1.89 1.80 1.70 1.94 2.09 2.12 2.32 2.38 2.38 2.37 2.46 2.70 2.75 2.79 2.57 2.71 2.92 2.92
0.82 0.95 0.97 0.90 0.92 0.90 0.90 0.91 0.93 1.00 1.14 1.29 1.45 1.55 1.64 1.70 1.65 1.64 1.68 1.84 1.91 1.97 2.09 2.13 2.14 2.05 1.77 1.96 2.05 2.08 2.19 2.32 2.32 2.34 2.30 2.21 2.22 2.30 2.42 2.42 2.44 2.59 2.71
0.97 1.09 1.15 1.13 1.16 1.16 1.23 1.32 1.23 1.30 1.47 1.61 1.78 1.82 1.79 1.83 1.81 1.85 1.89 1.91 2.04 2.17 2.19 2.17 2.20 2.17 2.17 2.18 1.93 1.86 1.86 1.95 1.98 1.99 2.01 1.80 1.71 2.03 2.09 2.26 2.24 2.12 2.17
1.01 1.14 1.22 1.22 1.18 1.23 1.35 1.57 1.66 1.65 1.76 1.87 1.98 2.06 2.09 2.16 2.23 2.33 2.34 2.39 2.44 2.50 2.43 2.34 2.36 2.42 2.38 2.40 2.07 1.95 1.81 1.81 1.78 1.76 1.74 1.77 1.77 1.82 2.00 2.09 2.06 1.96 1.92
1.13 1.30 1.30 1.27 1.28 1.46 1.53 1.60 1.71 1.74 1.90 2.09 2.23 2.31 2.38 2.42 2.46 2.49 2.62 2.78 2.92 2.96 2.85 2.79 2.83 2.82 2.89 2.90 2.52 2.34 2.06 1.97 1.85 1.86 1.92 1.96 1.81 1.87 1.90 1.94 1.90 1.85 1.88
1.28 1.44 1.48 1.44 1.52 1.78 1.84 1.93 2.00 2.06 2.13 2.22 2.39 2.59 2.71 2.76 2.75 2.82 2.98 3.16 3.34 3.36 3.36 3.36 3.38 3.31 3.30 3.27 2.84 2.65 2.36 2.28 2.20 2.21 2.09 1.99 1.79 1.74 1.69 1.70 1.74 1.65 1.64
1.26 1.42 1.49 1.50 1.57 1.78 1.99 2.27 2.40 2.44 2.43 2.47 2.60 2.75 2.86 2.99 3.05 3.15 3.25 3.43 3.57 3.55 3.50 3.47 3.46 3.36 3.27 3.14 2.78 2.60 2.38 2.40 2.41 2.29 2.17 2.03 1.87 1.66 1.61 1.56 1.55 1.57 1.66
1.31 1.39 1.51 1.59 1.69 1.82 2.08 2.34 2.53 2.66 2.72 2.72 2.86 2.92 2.92 2.83 2.82 3.07 3.28 3.51 3.74 3.71 3.65 3.69 3.55 3.38 3.26 2.98 2.73 2.51 2.35 2.42 2.46 2.38 2.26 2.14 2.00 1.74 1.65 1.51 1.48 1.56 1.54
1.28 1.31 1.39 1.51 1.61 1.70 1.92 2.32 2.49 2.57 2.64 2.72 2.77 2.88 2.91 2.93 2.99 3.20 3.38 3.58 3.70 3.66 3.57 3.56 3.47 3.27 3.09 2.94 2.68 2.44 2.34 2.36 2.29 2.35 2.45 2.25 2.08 1.87 1.71 1.68 1.66 1.56 1.45
1.21 1.28 1.37 1.49 1.59 1.53 1.67 1.89 2.11 2.26 2.31 2.34 2.37 2.37 2.49 2.66 2.90 3.22 3.32 3.38 3.44 3.48 3.47 3.36 3.23 3.18 3.16 3.09 2.82 2.50 2.25 2.21 2.23 2.27 2.34 2.22 2.05 1.83 1.69 1.70 1.63 1.48 1.45
1.21 1.27 1.43 1.44 1.50 1.56 1.56 1.60 1.66 1.86 2.03 2.03 2.04 2.14 2.25 2.44 2.66 2.90 3.07 3.04 3.08 3.30 3.20 2.97 2.80 2.70 2.63 2.71 2.61 2.33 2.18 2.13 2.21 2.27 2.31 2.24 2.12 1.97 1.81 1.72 1.73 1.74 1.70
1.27 1.28 1.34 1.33 1.32 1.44 1.52 1.54 1.64 1.81 1.88 1.82 1.83 1.87 1.92 2.08 2.25 2.42 2.56 2.59 2.38 2.44 2.36 2.22 2.10 1.99 1.95 1.96 1.83 1.68 1.63 1.72 1.90 2.00 2.15 2.18 2.10 2.00 1.94 1.90 1.87 1.84 1.76